| time (UTC) | temp F | wind direction | speed MPH | gust MPH | rain 1hr in | rain 24hr in | rain mn in | humidity % | barometer mb |
| 20260906143804 | 72 | 169 | 4.0 | 9.0 | 0.00 | 0.00 | 0.00 | 65 | 1019.9 |
| 20260906142306 | 73 | 173 | 5.0 | 12.0 | 0.00 | 0.00 | 0.00 | 64 | 1020.5 |
| 20260906141805 | 73 | 139 | 3.0 | 8.0 | 0.00 | 0.00 | 0.00 | 65 | 1020.5 |
| 20260906141305 | 73 | 148 | 3.0 | 9.0 | 0.00 | 0.00 | 0.00 | 63 | 1020.5 |
| 20260906140805 | 73 | 188 | 4.0 | 8.0 | 0.00 | 0.00 | 0.00 | 59 | 1020.5 |
| 20260906135805 | 72 | 202 | 3.0 | 10.0 | 0.00 | 0.00 | 0.00 | 60 | 1020.7 |
| 20260906135306 | 72 | 159 | 5.0 | 17.0 | 0.00 | 0.00 | 0.00 | 63 | 1020.6 |
| 20260906133805 | 73 | 159 | 5.0 | 12.0 | 0.00 | 0.00 | 0.00 | 65 | 1020.6 |
| 20260906131304 | 73 | 175 | 3.0 | 9.0 | 0.00 | 0.00 | 0.00 | 58 | 1021.1 |
| 20260906125306 | 73 | 183 | 5.0 | 9.0 | 0.00 | 0.00 | 0.00 | 57 | 1021.1 |
| 20260906124805 | 74 | 189 | 2.0 | 10.0 | 0.00 | 0.00 | 0.00 | 58 | 1021.1 |
| 20260906124305 | 74 | 175 | 3.0 | 8.0 | 0.00 | 0.00 | 0.00 | 57 | 1021.1 |
| 20260906123805 | 74 | 176 | 3.0 | 10.0 | 0.00 | 0.00 | 0.00 | 57 | 1021.1 |
| 20260906123305 | 74 | 185 | 3.0 | 10.0 | 0.00 | 0.00 | 0.00 | 57 | 1021.3 |
| 20260906120305 | 74 | 201 | 6.0 | 12.0 | 0.00 | 0.00 | 0.00 | 57 | 1021.5 |
| 20260906114804 | 74 | 211 | 7.0 | 15.0 | 0.00 | 0.00 | 0.00 | 57 | 1021.7 |
| 20260906114305 | 74 | 185 | 4.0 | 10.0 | 0.00 | 0.00 | 0.00 | 58 | 1021.7 |
| 20260906113306 | 73 | 188 | 5.0 | 13.0 | 0.00 | 0.00 | 0.00 | 59 | 1021.7 |
| 20260906112805 | 73 | 191 | 6.0 | 14.0 | 0.00 | 0.00 | 0.00 | 60 | 1021.7 |
| 20260906111304 | 73 | 144 | 5.0 | 12.0 | 0.00 | 0.00 | 0.00 | 62 | 1021.8 |
| 20260906110304 | 73 | 208 | 5.0 | 12.0 | 0.00 | 0.00 | 0.00 | 62 | 1021.8 |
| 20260906105306 | 72 | 152 | 2.0 | 12.0 | 0.00 | 0.00 | 0.00 | 64 | 1021.8 |
| 20260906103805 | 72 | 197 | 3.0 | 12.0 | 0.00 | 0.00 | 0.00 | 65 | 1021.9 |
| 20260906103304 | 71 | 168 | 4.0 | 8.0 | 0.00 | 0.00 | 0.00 | 66 | 1022.0 |
| 20260906102306 | 71 | 214 | 3.0 | 14.0 | 0.00 | 0.00 | 0.00 | 68 | 1022.0 |
| 20260906101804 | 70 | 199 | 3.0 | 12.0 | 0.00 | 0.00 | 0.00 | 69 | 1022.0 |
| 20260906101304 | 70 | 230 | 5.0 | 12.0 | 0.00 | 0.00 | 0.00 | 69 | 1022.1 |
| 20260906100804 | 70 | 183 | 6.0 | 13.0 | 0.00 | 0.00 | 0.00 | 69 | 1022.1 |
| 20260906095805 | 69 | 142 | 7.0 | 14.0 | 0.00 | 0.00 | 0.00 | 69 | 1022.1 |
| 20260906094305 | 69 | 198 | 6.0 | 13.0 | 0.00 | 0.00 | 0.00 | 72 | 1022.3 |
| 20260906092804 | 68 | 144 | 6.0 | 13.0 | 0.00 | 0.00 | 0.00 | 73 | 1022.4 |
| 20260906090804 | 68 | 167 | 3.0 | 13.0 | 0.00 | 0.00 | 0.00 | 78 | 1022.6 |
| 20260906083804 | 66 | 189 | 5.0 | 9.0 | 0.00 | 0.00 | 0.00 | 79 | 1022.8 |
| 20260906083305 | 66 | 167 | 8.0 | 15.0 | 0.00 | 0.00 | 0.00 | 78 | 1022.8 |
| 20260906082805 | 66 | 193 | 3.0 | 10.0 | 0.00 | 0.00 | 0.00 | 80 | 1022.8 |
| 20260906082306 | 65 | 180 | 2.0 | 7.0 | 0.00 | 0.00 | 0.00 | 81 | 1022.8 |
| 20260906081804 | 65 | 170 | 5.0 | 12.0 | 0.00 | 0.00 | 0.00 | 81 | 1022.8 |
| 20260906074305 | 63 | 161 | 5.0 | 8.0 | 0.00 | 0.00 | 0.00 | 86 | 1022.9 |
| 20260906073804 | 62 | 144 | 3.0 | 8.0 | 0.00 | 0.00 | 0.00 | 87 | 1022.9 |
| 20260906073304 | 62 | 169 | 2.0 | 7.0 | 0.00 | 0.00 | 0.00 | 88 | 1023.0 |
| 20260906072804 | 61 | 153 | 3.0 | 6.0 | 0.00 | 0.00 | 0.00 | 88 | 1023.0 |
| 20260906071805 | 61 | 168 | 2.0 | 7.0 | 0.00 | 0.00 | 0.00 | 89 | 1023.0 |
| 20260906070805 | 60 | 161 | 2.0 | 5.0 | 0.00 | 0.00 | 0.00 | 90 | 1023.1 |
| 20260906064305 | 58 | 148 | 3.0 | 5.0 | 0.00 | 0.00 | 0.00 | 91 | 1023.3 |
| 20260906063805 | 58 | 147 | 2.0 | 3.0 | 0.00 | 0.00 | 0.00 | 91 | 1023.3 |
| 20260906062804 | 57 | 155 | 1.0 | 3.0 | 0.00 | 0.00 | 0.00 | 91 | 1023.4 |
| 20260906060305 | 57 | 159 | 0.0 | 0.0 | 0.00 | 0.00 | 0.00 | 90 | 1023.4 |
| 20260906055306 | 57 | 159 | 0.0 | 0.0 | 0.00 | 0.00 | 0.00 | 90 | 1023.3 |
| 20260906054805 | 57 | 159 | 0.0 | 0.0 | 0.00 | 0.00 | 0.00 | 90 | 1023.3 |
| 20260906053805 | 57 | 176 | 0.0 | 0.0 | 0.00 | 0.00 | 0.00 | 90 | 1023.4 |
| 20260906053304 | 56 | 153 | 0.0 | 2.0 | 0.00 | 0.00 | 0.00 | 90 | 1023.5 |
| 20260906050805 | 56 | 171 | 0.0 | 0.0 | 0.00 | 0.00 | 0.00 | 90 | 1023.5 |
| 20260906044805 | 56 | 166 | 0.0 | 0.0 | 0.00 | 0.00 | 0.00 | 90 | 1023.4 |
| 20260906044304 | 56 | 186 | 0.0 | 3.0 | 0.00 | 0.00 | 0.00 | 89 | 1023.5 |
| 20260906041804 | 56 | 157 | 1.0 | 3.0 | 0.00 | 0.00 | 0.00 | 88 | 1023.7 |
| 20260906041305 | 56 | 195 | 0.0 | 3.0 | 0.00 | 0.00 | 0.00 | 88 | 1023.7 |
| 20260906040804 | 56 | 170 | 1.0 | 2.0 | 0.00 | 0.00 | 0.00 | 88 | 1023.7 |
| 20260906040305 | 56 | 152 | 1.0 | 2.0 | 0.00 | 0.00 | 0.00 | 87 | 1023.9 |
| 20260906035306 | 56 | 211 | 0.0 | 0.0 | 0.00 | 0.00 | 0.00 | 87 | 1023.9 |
| 20260906033305 | 56 | 252 | 0.0 | 0.0 | 0.00 | 0.00 | 0.00 | 87 | 1023.7 |
| 20260906032804 | 56 | 252 | 0.0 | 0.0 | 0.00 | 0.00 | 0.00 | 87 | 1023.7 |
| 20260906031805 | 56 | 5 | 0.0 | 0.0 | 0.00 | 0.00 | 0.00 | 87 | 1023.7 |
| 20260906031305 | 56 | 0 | 0.0 | 0.0 | 0.00 | 0.00 | 0.00 | 87 | 1023.7 |
| 20260906030304 | 56 | 355 | 0.0 | 0.0 | 0.00 | 0.00 | 0.00 | 87 | 1024.0 |
| 20260906024805 | 56 | 275 | 0.0 | 0.0 | 0.00 | 0.00 | 0.00 | 87 | 1024.2 |
| 20260906024304 | 56 | 275 | 0.0 | 0.0 | 0.00 | 0.00 | 0.00 | 86 | 1024.5 |
| 20260906023804 | 56 | 275 | 0.0 | 0.0 | 0.00 | 0.00 | 0.00 | 86 | 1024.5 |
| 20260906023304 | 56 | 275 | 0.0 | 0.0 | 0.00 | 0.00 | 0.00 | 86 | 1024.7 |
| 20260906022307 | 56 | 281 | 0.0 | 0.0 | 0.00 | 0.00 | 0.00 | 86 | 1024.8 |
| 20260906021805 | 56 | 270 | 0.0 | 0.0 | 0.00 | 0.00 | 0.00 | 86 | 1024.8 |
| 20260906020804 | 56 | 261 | 0.0 | 0.0 | 0.00 | 0.00 | 0.00 | 86 | 1024.8 |
| 20260906020305 | 56 | 275 | 0.0 | 0.0 | 0.00 | 0.00 | 0.00 | 86 | 1024.7 |
| 20260906014804 | 56 | 279 | 0.0 | 0.0 | 0.00 | 0.00 | 0.00 | 85 | 1024.8 |
| 20260906014304 | 56 | 279 | 0.0 | 0.0 | 0.00 | 0.00 | 0.00 | 85 | 1024.9 |
| 20260906013805 | 56 | 277 | 0.0 | 0.0 | 0.00 | 0.00 | 0.00 | 85 | 1024.9 |
| 20260906012804 | 57 | 233 | 0.0 | 0.0 | 0.00 | 0.00 | 0.00 | 85 | 1024.9 |
| 20260906010305 | 57 | 295 | 1.0 | 3.0 | 0.00 | 0.00 | 0.00 | 85 | 1025.1 |
| 20260906005804 | 57 | 305 | 0.0 | 0.0 | 0.00 | 0.00 | 0.00 | 85 | 1025.1 |
| 20260906003805 | 57 | 280 | 0.0 | 0.0 | 0.00 | 0.00 | 0.00 | 84 | 1025.1 |
| 20260906002306 | 57 | 214 | 0.0 | 0.0 | 0.00 | 0.00 | 0.00 | 84 | 1025.2 |
| 20260906001804 | 57 | 207 | 0.0 | 1.0 | 0.00 | 0.00 | 0.00 | 83 | 1025.2 |
| 20260906000805 | 57 | 254 | 0.0 | 0.0 | 0.00 | 0.00 | 0.00 | 83 | 1025.3 |
| 20260906000304 | 57 | 255 | 0.0 | 0.0 | 0.00 | 0.00 | 0.00 | 83 | 1025.4 |
| 20260905234805 | 58 | 265 | 0.0 | 2.0 | 0.00 | 0.01 | 0.00 | 83 | 1025.4 |
| 20260905233805 | 58 | 233 | 1.0 | 3.0 | 0.00 | 0.01 | 0.00 | 82 | 1025.4 |
| 20260905233305 | 58 | 239 | 0.0 | 2.0 | 0.00 | 0.01 | 0.00 | 82 | 1025.1 |
| 20260905232805 | 58 | 224 | 0.0 | 0.0 | 0.00 | 0.01 | 0.00 | 82 | 1025.1 |
| 20260905232306 | 58 | 224 | 0.0 | 0.0 | 0.00 | 0.01 | 0.00 | 82 | 1025.1 |
| 20260905230304 | 58 | 248 | 2.0 | 3.0 | 0.00 | 0.01 | 0.00 | 83 | 1025.2 |
| 20260905225804 | 58 | 272 | 1.0 | 3.0 | 0.00 | 0.01 | 0.01 | 83 | 1025.2 |
| 20260905224804 | 58 | 245 | 0.0 | 0.0 | 0.00 | 0.01 | 0.01 | 83 | 1025.1 |
| 20260905223805 | 58 | 274 | 0.0 | 2.0 | 0.00 | 0.01 | 0.01 | 84 | 1025.0 |
| 20260905222805 | 58 | 286 | 2.0 | 3.0 | 0.00 | 0.01 | 0.01 | 84 | 1025.0 |
| 20260905221804 | 58 | 252 | 2.0 | 5.0 | 0.00 | 0.01 | 0.01 | 83 | 1025.2 |
| 20260905221305 | 58 | 243 | 2.0 | 3.0 | 0.00 | 0.01 | 0.01 | 83 | 1025.1 |
| 20260905220305 | 58 | 225 | 2.0 | 7.0 | 0.00 | 0.01 | 0.01 | 83 | 1025.1 |
| 20260905215804 | 58 | 248 | 3.0 | 3.0 | 0.00 | 0.01 | 0.01 | 83 | 1025.1 |
| 20260905212804 | 58 | 243 | 3.0 | 6.0 | 0.00 | 0.01 | 0.01 | 82 | 1025.1 |
| 20260905211304 | 59 | 243 | 2.0 | 3.0 | 0.00 | 0.01 | 0.01 | 82 | 1025.1 |
| 20260905210804 | 59 | 243 | 2.0 | 3.0 | 0.00 | 0.01 | 0.01 | 82 | 1025.1 |
| 20260905205306 | 59 | 247 | 1.0 | 3.0 | 0.00 | 0.01 | 0.01 | 81 | 1025.1 |
| 20260905204804 | 59 | 257 | 1.0 | 3.0 | 0.00 | 0.01 | 0.01 | 81 | 1025.1 |
| 20260905203804 | 59 | 253 | 2.0 | 3.0 | 0.00 | 0.01 | 0.01 | 81 | 1024.9 |
| 20260905202306 | 59 | 235 | 1.0 | 3.0 | 0.00 | 0.01 | 0.01 | 80 | 1024.9 |
| 20260905200804 | 60 | 217 | 2.0 | 3.0 | 0.00 | 0.01 | 0.01 | 80 | 1024.9 |
| 20260905195805 | 60 | 244 | 3.0 | 5.0 | 0.00 | 0.01 | 0.01 | 80 | 1024.8 |
| 20260905195306 | 60 | 239 | 3.0 | 6.0 | 0.00 | 0.01 | 0.01 | 79 | 1024.9 |
| 20260905193804 | 60 | 244 | 2.0 | 5.0 | 0.00 | 0.01 | 0.01 | 78 | 1024.9 |
| 20260905193304 | 60 | 230 | 2.0 | 3.0 | 0.00 | 0.01 | 0.01 | 78 | 1024.9 |
| 20260905192804 | 60 | 234 | 3.0 | 5.0 | 0.00 | 0.01 | 0.01 | 77 | 1024.9 |
| 20260905192306 | 61 | 238 | 3.0 | 6.0 | 0.00 | 0.01 | 0.01 | 77 | 1024.8 |
| 20260905191805 | 61 | 250 | 2.0 | 5.0 | 0.00 | 0.01 | 0.01 | 77 | 1024.8 |
| 20260905191304 | 61 | 235 | 3.0 | 6.0 | 0.00 | 0.01 | 0.01 | 76 | 1024.7 |
| 20260905190805 | 61 | 236 | 2.0 | 6.0 | 0.00 | 0.01 | 0.01 | 76 | 1024.7 |
| 20260905185805 | 62 | 185 | 2.0 | 5.0 | 0.00 | 0.01 | 0.01 | 75 | 1024.5 |
| 20260905184304 | 62 | 246 | 2.0 | 5.0 | 0.00 | 0.01 | 0.01 | 74 | 1024.4 |
| 20260905182306 | 63 | 228 | 3.0 | 5.0 | 0.00 | 0.01 | 0.01 | 72 | 1024.5 |
| 20260905181804 | 64 | 199 | 2.0 | 5.0 | 0.00 | 0.01 | 0.01 | 72 | 1024.5 |
| 20260905180304 | 65 | 220 | 2.0 | 7.0 | 0.00 | 0.01 | 0.01 | 70 | 1024.5 |
| 20260905175804 | 65 | 242 | 4.0 | 8.0 | 0.00 | 0.01 | 0.01 | 69 | 1024.5 |
| 20260905174304 | 66 | 196 | 2.0 | 3.0 | 0.00 | 0.01 | 0.01 | 68 | 1024.5 |
| 20260905173304 | 66 | 204 | 4.0 | 9.0 | 0.00 | 0.01 | 0.01 | 67 | 1024.4 |
| 20260905172305 | 67 | 200 | 3.0 | 9.0 | 0.00 | 0.01 | 0.01 | 66 | 1024.4 |
| 20260905171804 | 67 | 194 | 4.0 | 9.0 | 0.00 | 0.01 | 0.01 | 66 | 1024.4 |
| 20260905170804 | 67 | 238 | 3.0 | 8.0 | 0.00 | 0.01 | 0.01 | 67 | 1024.5 |
| 20260905165804 | 68 | 209 | 5.0 | 9.0 | 0.00 | 0.01 | 0.01 | 66 | 1024.4 |
| 20260905165306 | 68 | 242 | 4.0 | 9.0 | 0.00 | 0.01 | 0.01 | 65 | 1024.5 |
| 20260905163804 | 68 | 233 | 5.0 | 12.0 | 0.00 | 0.01 | 0.01 | 64 | 1024.5 |
| 20260905163304 | 68 | 235 | 4.0 | 12.0 | 0.00 | 0.01 | 0.01 | 64 | 1024.5 |
| 20260905162805 | 68 | 227 | 3.0 | 9.0 | 0.00 | 0.01 | 0.01 | 64 | 1024.5 |
| 20260905155805 | 68 | 215 | 3.0 | 12.0 | 0.00 | 0.01 | 0.01 | 64 | 1024.5 |
| 20260905155306 | 68 | 237 | 7.0 | 15.0 | 0.00 | 0.01 | 0.01 | 63 | 1024.5 |
| 20260905154804 | 69 | 226 | 5.0 | 12.0 | 0.00 | 0.01 | 0.01 | 63 | 1024.5 |
| 20260905153305 | 69 | 210 | 5.0 | 12.0 | 0.00 | 0.01 | 0.01 | 61 | 1024.5 |
| 20260905152805 | 69 | 201 | 5.0 | 12.0 | 0.00 | 0.01 | 0.01 | 62 | 1024.5 |
| 20260905150804 | 69 | 186 | 4.0 | 12.0 | 0.00 | 0.01 | 0.01 | 62 | 1024.4 |
| 20260905150304 | 70 | 234 | 4.0 | 12.0 | 0.00 | 0.01 | 0.01 | 61 | 1024.5 |
| 20260905145804 | 70 | 210 | 6.0 | 10.0 | 0.00 | 0.01 | 0.01 | 60 | 1024.5 |
| 20260905144804 | 70 | 202 | 5.0 | 12.0 | 0.00 | 0.01 | 0.01 | 60 | 1024.4 |